Location: Alafon
(8.4500°N, 4.2333°E)
Time: 22:27:18
(UTC+00:00)

Explorer 7 - Pass Details

Date: 01 August 2021
Orbit: 484 x 676 km, 50.3° (Epoch: 18 September)

Event Time Altitude Azimuth Distance (km) Brightness Sun altitude
Rises 01:46:14 0° 208° (SSW) 2,588 - -50.9°
Reaches altitude 10° 01:48:29 10° 203° (SSW) 1,684 - -50.5°
Maximum altitude 01:52:10 50° 127° (SE) 620 - -49.8°
Drops below altitude 10° 01:55:47 10° 51° (NE) 1,651 - -49.1°
Sets 01:57:58 0° 45° (NE) 2,531 - -48.7°
